AirNav   Pilot Hours Calculator
 
 1537 users online  

72FL Gator Airpark
St Cloud, Florida, USA

GOING TO ST CLOUD?


FAA INFORMATION EFFECTIVE 16 JUNE 2022

Location

FAA Identifier: 72FL
Lat/Long: 28-09-27.0560N 081-14-05.2680W
28-09.450933N 081-14.087800W
28.1575156,-81.2347967
(estimated)
Elevation: 68 ft. / 21 m (estimated)
Variation: 02W (1990)
From city: 6 miles SE of ST CLOUD, FL
Time zone: UTC -4 (UTC -5 during Standard Time)
Zip code: 33837

Airport Operations

Airport use: Private use. Permission required prior to landing
Activation date: 02/1993
Control tower: no
ARTCC: JACKSONVILLE CENTER
FSS: SAINT PETERSBURG FLIGHT SERVICE STATION
Attendance: UNATNDD
Segmented circle: no

Airport Communications

WX AWOS-3PT at ISM (13 nm NW): PHONE 407-847-0533
WX ASOS at MCO (17 nm N): PHONE 407-855-5235

Airport Services

Runway Information

Runway 9/27

Dimensions: 1800 x 200 ft. / 549 x 61 m
Surface: turf
RUNWAY 9  RUNWAY 27
Traffic pattern: leftleft

Airport Ownership and Management from official FAA records

Ownership: Privately-owned
Owner: ALBRITTON AIRSTRIP TRUST
4525 ALBRITTON RD
SAINT CLOUD, FL 34772
Phone 407-892-4546
Manager: ROBERT L. ALBRITTON
4525 ALBRITTON RD
SAINT CLOUD, FL 34772
Phone 407-908-5656

Airport Operational Statistics

Aircraft based on the field: 6
Single engine airplanes: 6
    
Aircraft operations: avg 25/month
100% local general aviation

Additional Remarks

FOR CD CTC ORLANDO APCH AT 407-852-7553.

Instrument Procedures

There are no published instrument procedures at 72FL.

Some nearby airports with instrument procedures:

KISM - Kissimmee Gateway Airport (13 nm NW)
KMCO - Orlando International Airport (17 nm N)
KORL - Executive Airport (24 nm N)
X07 - Lake Wales Municipal Airport (26 nm SW)
KGIF - Winter Haven Regional Airport (28 nm W)
 
Loc | Ops | Rwys | IFR | FBO | Links
Com | Nav | Svcs | Stats | Notes

Reliance Aviation
AirBoss

 
Area around 72FL (Gator Airpark)
 
Road maps at: MapQuest Bing Google
 
Aerial photo
No photo
 
Sectional chart

 
Airport distance calculator
Flying to Gator Airpark? Find the distance to fly.

From to 72FL

Sunrise and sunset
Times for 29-Jun-2022
 Local
(UTC-4)
 Zulu
(UTC)
Morning civil twilight06:0510:05
Sunrise06:3210:32
Sunset20:2500:25
Evening civil twilight20:5100:51

Current date and time
Zulu (UTC)  29-Jun-2022 16:23:17
Local (UTC-4)  29-Jun-2022 12:23:17
 
METAR
KISM 
13nm NW 
291556Z 06008KT 10SM SCT036 SCT045 31/22 A3018 RMK AO2 SLP219 T03110222 PNO $
KMCO 
16nm N 
291553Z 04009G17KT 350V070 10SM SCT036 SCT250 32/22 A3016 RMK AO2 SLP212 T03220217
KORL 
24nm N 
291553Z 07009KT 10SM FEW042 33/22 A3017 RMK AO2 SLP219 T03280222
KX07 
26nm SW 
291555Z AUTO 08004KT 9SM FEW034 FEW043 31/23 A3018 RMK A01
TAF
KISM 
13nm NW 
291128Z 2912/3012 VRB05KT P6SM FEW020 BKN250 FM291500 10007KT P6SM SCT035 FM291900 09010KT P6SM VCTS SCT040CB FM292300 10006KT P6SM FEW030 BKN250
KMCO 
16nm N 
291128Z 2912/3018 36004KT P6SM FEW020 BKN270 FM291500 10008KT P6SM SCT035 FM291700 09010KT P6SM VCTS SCT040CB FM300000 09006KT P6SM FEW030 BKN250 FM301600 13007KT P6SM VCSH SCT035 BKN050
NOTAMs
Click for the latest NOTAMs
NOTAMs are issued by the DoD/FAA and will open in a separate window not controlled by AirNav.

 

 
 

Would you like to see your business listed on this page?

 If your business provides an interesting product or service to pilots, flight crews, aircraft, or users of the Gator Airpark, you should consider listing it here.  To start the listing process, click on the button below
 
Add a business
 

Other Pages about Gator Airpark

Update a link
 
Copyright © AirNav, LLC. All rights reserved. Privacy Policy  Contact